Hourly Data Report for October 20, 2013

All times are specified in Local Standard Time (LST). Add 1 hour to adjust for Daylight Saving Time where and when it is observed.

CAPE DORSET A
NUNAVUT

64°13'49.000" N
76°31'30.000" W
48.20 m
2400637
71366
YTE

Download Data

Hourly Data (October 2013)
Hourly Data Report for October 20, 2013
Temp Definition
°C
Dew Point Temp Definition
°C
Rel Hum Definition
%
Wind Dir Definition
10's deg

Wind Spd Definition
km/h
Visibility Definition
km
Stn Press Definition
kPa
Hmdx Definition


Wind Chill Definition


Weather Definition


TIME
00:00 Legend Double Dagger -0.2 -0.9 95 5 18 16.1 100.94   -5 LegendNANA
01:00 Legend Double Dagger -0.1 -0.4 98 5 15 1.2 100.94   -5 LegendNANA
02:00 Legend Double Dagger -0.1 -0.4 98 5 18 1.0 100.93   -5 LegendNANA
03:00 Legend Double Dagger -0.1 -0.4 98 5 22 12.9 100.90   -6 LegendNANA
04:00 Legend Double Dagger 0.0 -0.4 97 5 24 16.1 100.89   -6 LegendNANA
05:00 Legend Double Dagger 0.0 -0.4 97 5 24 6.4 100.89   -6 LegendNANA
06:00 Legend Double Dagger 0.0 -0.3 98 5 22 8.1 100.86   -6 LegendNANA
07:00 Legend Double Dagger 0.2 -0.2 97 6 26 16.1 100.87     LegendNANA
08:00 Legend Double Dagger 0.4 0.1 98 6 21 4.8 100.88     LegendNANA
09:00 Legend Double Dagger 0.7 0.4 98 6 24 8.1 100.88     LegendNANA
10:00 Legend Double Dagger 0.8 0.5 98 7 30 1.2 100.88     LegendNANA
11:00 Legend Double Dagger 0.7 0.4 98 8 28 0.2 100.91     LegendNANA
12:00 Legend Double Dagger 0.8 0.7 99 9 28 0.2 100.89     LegendNANA
13:00 Legend Double Dagger 0.9 0.6 98 9 24 16.1 100.91     LegendNANA
14:00 Legend Double Dagger 1.2 0.6 96 9 35 16.1 100.90     LegendNANA
15:00 Legend Double Dagger 1.3 0.7 96 10 28 16.1 100.92     LegendNANA
16:00 Legend Double Dagger 1.5 0.8 95 8 30 16.1 100.95     LegendNANA
17:00 Legend Double Dagger 0.8 0.5 98 10 24 8.1 100.94     LegendNANA
18:00 Legend Double Dagger -0.1 -0.3 99 9 24 0.6 100.97   -6 LegendNANA
19:00 Legend Double Dagger 0.0 -0.1 99 9 22 0.6 101.01   -6 LegendNANA
20:00 Legend Double Dagger 0.3 0.2 99 8 22 0.6 101.01     LegendNANA
21:00 Legend Double Dagger 0.6 0.5 99 8 18 9.7 101.02     LegendNANA
22:00 Legend Double Dagger 0.7 0.6 99 9 18 9.7 101.00     LegendNANA
23:00 Legend Double Dagger 1.0 0.7 98 8 26 16.1 100.98     LegendNANA

Notes on Data Quality.

Legend

  • E = Estimated
  • M = Missing
  • NA = Not Available
  • ‡ = Partner data that is not subject to review by the National Climate Archives
Date modified: